Location: Caltech
(34.1382°N, 118.1253°W)
Time: 04:46:31
(UTC-07:00)

ADEOS II - Visible Passes

Search period start: 19 September 2014 00:00
Search period end: 29 September 2014 00:00
Orbit: 801 x 803 km, 98.3° (Epoch: 18 September)

Date Brightness Start Highest point End Pass type
(mag) Time Alt. Az. Time Alt. Az. Time Alt. Az.
19 Sep 5.0 19:15:27 10° SW 19:19:25 22° W 19:23:25 10° NW visible
20 Sep 5.0 05:53:47 10° NE 05:57:34 20° E 06:01:20 10° SE visible
21 Sep 5.7 05:30:46 10° E 05:31:21 10° E 05:31:55 10° E visible
22 Sep 5.4 19:39:14 10° WSW 19:41:27 13° W 19:43:39 10° WNW visible
23 Sep 4.2 06:14:49 10° NNE 06:19:32 33° E 06:24:14 10° SSE visible
23 Sep 4.9 19:11:06 10° SSW 19:15:14 24° W 19:19:24 10° NW visible
24 Sep 5.1 05:49:49 10° NE 05:53:23 18° E 05:56:56 10° SE visible
26 Sep 5.4 19:34:37 10° WSW 19:37:14 14° W 19:39:52 10° WNW visible
27 Sep 4.3 06:10:44 10° NE 06:15:21 31° E 06:19:56 10° SSE visible
27 Sep 4.7 19:06:45 10° SSW 19:11:03 26° W 19:15:22 10° NW visible
28 Sep 5.2 05:45:51 10° NE 05:49:11 17° E 05:52:29 10° SE visible
